User: anonymous   Login
Location: Theydon Bois
(51.6750°N, 0.1050°E)
Time: 23:04:31
(UTC+01:00)
Language:

Cosmos 1805 - Orbit

View from above orbital plane
View from above orbital plane
View from above satellite
View from above satellite

Ground track
Ground track

The orbit data is extracted from the following two-line orbital elements,

1 17191U 86097A   17292.20480141  .00001179  00000-0  67118-4 0  9995
2 17191  82.4732 267.3131 0005234  26.6376 333.5122 15.11913771682386
Epoch (UTC): 19 October 2017 04:54:54
Eccentricity: 0.0005234
inclination: 82.4732°
perigee height: 527 km
apogee height: 534 km
right ascension of ascending node: 267.3131°
argument of perigee: 26.6376°
revolutions per day: 15.11913771
mean anomaly at epoch: 333.5122°
orbit number at epoch: 68238

The dashed part of the orbit path shows where the satellite is in the earth's shadow,  

DLR